Grapevine, CA Past Weather

Last 30 Days

 
High: 78ºf @11:13 AM    Low: 63ºf @1:13 AM     Approx. Precipitation / Rain Total: in.
Time (PDT)Temp. (ºf)Humidity (%)Dew Point (ºf)Barometer (inHG)Wind Speed (mph)Wind DirectionWind Gust (mph)1hr. Precip / Rain Total (in.)Snow Depth
11:13 AM781628.17-0.87e0.87--
10:13 AM731624.16---7.82--
9:13 AM691722.38---0.87--
8:13 AM651921.74-0.87sse9.56--
5:13 AM632021.31-9.56sse12.17--
3:13 AM642224.4-10.43se13.03--
2:13 AM642224.4-9.56se13.9--
1:13 AM632324.62-10.43sse14.77--
12:13 AM642325.46-9.56sse13.03--
High: 69ºf @2:13 PM    Low: 47ºf @5:13 AM     Approx. Precipitation / Rain Total: in.
Time (PDT)Temp. (ºf)Humidity (%)Dew Point (ºf)Barometer (inHG)Wind Speed (mph)Wind DirectionWind Gust (mph)1hr. Precip / Rain Total (in.)Snow Depth
11:13 PM633131.89------
10:13 PM584637.34------
9:13 PM574837.51------
8:13 PM604840.25---6.95--
6:13 PM604840.25---5.21--
5:13 PM634440.74---1.74--
4:13 PM673639.16---8.69--
3:13 PM683539.32-2.61sse9.56--
2:13 PM693540.2-1.74sse12.17--
1:13 PM693137.1-1.74sse12.17--
12:13 PM672933.69---8.69--
11:13 AM683438.58---6.08--
10:13 AM653637.39-0.87sse3.48--
9:13 AM613331.69---4.34--
8:13 AM535336.33-5.21n8.69--
7:13 AM514832.01-1.74n7.82--
6:13 AM488242.77-6.08n8.69--
5:13 AM478342.11---9.56--
4:13 AM514027.54-0.87nnw6.95--
2:13 AM515133.51---6.95--
1:13 AM487440.11---7.82--
12:13 AM486737.57-6.95nne9.56--
High: 57ºf @12:13 PM    Low: 45ºf @4:13 AM     Approx. Precipitation / Rain Total: in.
Time (PDT)Temp. (ºf)Humidity (%)Dew Point (ºf)Barometer (inHG)Wind Speed (mph)Wind DirectionWind Gust (mph)1hr. Precip / Rain Total (in.)Snow Depth
11:13 PM505132.59-6.08n9.56--
10:13 PM506940.24-0.87nnw9.56--
9:13 PM488543.71-7.82n10.43--
7:13 PM488644.01-6.95nne10.43--
6:13 PM498344.06-6.95n12.17--
5:13 PM527042.52---13.03--
4:13 PM556744.25-4.34n13.9--
3:13 PM557346.5-6.08n13.03--
2:13 PM549151.43-7.82n12.17--
1:13 PM548649.91-4.34n14.77--
12:13 PM575842.37-4.34nnw12.17--
11:13 AM539952.73-6.08nnw12.17--
10:13 AM4810048-6.08n11.3--
9:13 AM4710047-6.08n9.56--
8:13 AM4510045-3.48n13.03--
7:13 AM4610046-6.95n11.3--
6:13 AM469644.92-6.95n12.17--
5:13 AM459744.2-7.82n13.03--
4:13 AM458340.15-9.56n14.77--
3:13 AM478041.16-8.69n16.51--
2:13 AM477840.5-10.43n15.64--
1:13 AM477740.17-10.43n16.51--
12:13 AM477639.83-8.69n13.03--
High: 59ºf @1:13 PM    Low: 42ºf @5:13 AM     Approx. Precipitation / Rain Total: in.
Time (PDT)Temp. (ºf)Humidity (%)Dew Point (ºf)Barometer (inHG)Wind Speed (mph)Wind DirectionWind Gust (mph)1hr. Precip / Rain Total (in.)Snow Depth
11:13 PM497340.73-6.95n14.77--
10:13 PM497140.01-3.48n12.17--
9:13 PM495131.67-5.21n12.17--
8:13 PM477639.83-7.82n13.9--
7:13 PM467638.87-8.69n13.03--
6:13 PM487139.05-7.82n13.9--
5:13 PM515535.41-1.74n10.43--
3:13 PM546040.43-3.48n13.03--
2:13 PM535838.62-6.95n13.9--
1:13 PM593128.41-2.61nnw9.56--
12:13 PM535637.73-1.74nnw10.43--
11:13 AM545940-2.61n13.03--
10:13 AM516338.85-5.21n10.43--
9:13 AM508044.08-0.87nnw9.56--
8:13 AM4410044-6.08n9.56--
7:13 AM4210042-6.95n9.56--
6:13 AM4210042-6.95n9.56--
5:13 AM428537.82-6.95n10.43--
4:13 AM445127.05-4.34nne8.69--
3:13 AM465028.41-0.87n8.69--
1:13 AM474325.68-0.87n4.34--
12:13 AM474023.94---6.95--
High: 52ºf @3:13 PM    Low: 39ºf @7:13 AM     Approx. Precipitation / Rain Total: in.
Time (PDT)Temp. (ºf)Humidity (%)Dew Point (ºf)Barometer (inHG)Wind Speed (mph)Wind DirectionWind Gust (mph)1hr. Precip / Rain Total (in.)Snow Depth
11:13 PM473923.34-4.34n8.69--
10:13 PM474426.23-1.74n8.69--
8:13 PM466735.67-4.34n10.43--
7:13 PM456935.45-6.08n8.69--
6:13 PM476335.07-1.74n7.82--
4:13 PM515635.86-6.08n13.03--
3:13 PM525636.79-6.95n13.03--
2:13 PM525536.34-8.69n13.03--
12:13 PM515535.41-6.95nne12.17--
11:13 AM505534.48-6.08nne12.17--
10:13 AM495433.09-6.08-10.43--
9:13 AM485833.94-1.74nnw9.56--
7:13 AM399637.96-1.74n9.56--
6:13 AM409438.41-6.08n9.56--
5:13 AM409538.69-7.82n13.9--
4:13 AM409438.41-10.43n15.64--
2:13 AM428638.12-11.3n17.38--
1:13 AM427835.65-8.69n14.77--
12:13 AM448038.23-5.21n12.17--
High: 59ºf @12:13 AM    Low: 44ºf @11:13 PM     Approx. Precipitation / Rain Total: in.
Time (PDT)Temp. (ºf)Humidity (%)Dew Point (ºf)Barometer (inHG)Wind Speed (mph)Wind DirectionWind Gust (mph)1hr. Precip / Rain Total (in.)Snow Depth
11:13 PM447937.91-5.21n13.03--
10:13 PM455831.12-6.08n13.03--
8:13 PM479946.73-10.43n17.38--
7:13 PM4810048-7.82n13.9--
6:13 PM489747.19-6.08n12.17--
4:13 PM4910049-5.21n12.17--
3:13 PM4810048-2.61n11.3--
2:13 PM4810048-4.34n10.43--
1:13 PM4710047-5.21n11.3--
12:13 PM4610046-0.87n6.95--
11:13 AM4610046-3.48n13.03--
10:13 AM478342.11-7.82n13.03--
9:13 AM496638.14-5.21n9.56--
7:13 AM458039.21-1.74nw9.56--
6:13 AM457537.56-1.74nnw13.03--
5:13 AM457738.23-6.08nne12.17--
3:13 AM554031.13------
2:13 AM564032.02------
1:13 AM593229.19---0.87--
12:13 AM593229.19---1.74--
High: 73ºf @1:13 PM    Low: 58ºf @5:13 AM     Approx. Precipitation / Rain Total: in.
Time (PDT)Temp. (ºf)Humidity (%)Dew Point (ºf)Barometer (inHG)Wind Speed (mph)Wind DirectionWind Gust (mph)1hr. Precip / Rain Total (in.)Snow Depth
11:13 PM593229.19---0.87--
10:13 PM603028.48---4.34--
9:13 PM602927.66---5.21--
8:13 PM612726.78-0.87nw6.08--
7:13 PM603330.82-0.87n7.82--
6:13 PM642426.49------
5:13 PM712027.91------
4:13 PM712230.24---12.17--
3:13 PM722129.92-8.69sse16.51--
2:13 PM721927.48-10.43s20.86--
1:13 PM731928.3-13.03sse23.46--
12:13 PM711926.66-13.9sse23.46--
11:13 AM722028.73-14.77sse21.72--
10:13 AM662226.07-13.9sse23.46--
9:13 AM651820.47-18.25se25.2--
8:13 AM612221.89-13.03sse14.77--
7:13 AM612423.96-9.56se12.17--
6:13 AM602423.11------
5:13 AM582925.93------
4:13 AM592119.13------
3:13 AM621513.84------
2:13 AM601613.7------
1:13 AM621615.31------
12:13 AM631717.51------
High: 72ºf @1:13 PM    Low: 59ºf @10:13 PM     Approx. Precipitation / Rain Total: in.
Time (PDT)Temp. (ºf)Humidity (%)Dew Point (ºf)Barometer (inHG)Wind Speed (mph)Wind DirectionWind Gust (mph)1hr. Precip / Rain Total (in.)Snow Depth
10:13 PM592422.27------
9:13 PM602221.05------
8:13 PM622020.48------
7:13 PM621919.28------
6:13 PM622020.48------
5:13 PM682328.82------
4:13 PM701824.55-1.74sse7.82--
3:13 PM721521.83-0.87sse16.51--
2:13 PM721318.47-9.56s22.59--
1:13 PM721318.47-13.9sse24.33--
12:13 PM711419.41-10.43sse19.12--
11:13 AM681518.63-12.17sse18.25--
10:13 AM661517.04-10.43sse15.64--
High: 62ºf @12:13 PM    Low: 59ºf @4:13 PM     Approx. Precipitation / Rain Total: in.
Time (PDT)Temp. (ºf)Humidity (%)Dew Point (ºf)Barometer (inHG)Wind Speed (mph)Wind DirectionWind Gust (mph)1hr. Precip / Rain Total (in.)Snow Depth
4:13 PM593027.61-6.08nne9.56--
2:13 PM603028.48---0.87--
1:13 PM622929.38-0.87n0.87--
12:13 PM622626.73---5.21--
11:13 AM612625.87------
10:13 AM603028.48---6.95--
High: 69ºf @1:13 PM    Low: 65ºf @5:13 PM     Approx. Precipitation / Rain Total: in.
Time (PDT)Temp. (ºf)Humidity (%)Dew Point (ºf)Barometer (inHG)Wind Speed (mph)Wind DirectionWind Gust (mph)1hr. Precip / Rain Total (in.)Snow Depth
5:13 PM651921.74------
4:13 PM661922.56-1.74wnw13.03--
3:13 PM681518.63-1.74ssw13.03--
2:13 PM681518.63-8.69s17.38--
1:13 PM691214.29-6.95se21.72--
12:13 PM671110.77-12.17sse20.86--
11:13 AM661110-11.3sse19.12--
10:13 AM65107.12-8.69sse13.03--
High: 67ºf @3:13 PM    Low: 61ºf @10:13 AM     Approx. Precipitation / Rain Total: in.
Time (PDT)Temp. (ºf)Humidity (%)Dew Point (ºf)Barometer (inHG)Wind Speed (mph)Wind DirectionWind Gust (mph)1hr. Precip / Rain Total (in.)Snow Depth
4:13 PM6695.58-6.95ssw14.77--
3:13 PM6783.77-6.08ssw17.38--
2:13 PM6683.03-9.56ssw17.38--
1:13 PM6683.03-6.08ssw16.51--
12:13 PM666-3.07-10.43s17.38--
11:13 AM636-5.25-12.17s17.38--
10:13 AM616-6.7-11.3sse16.51--
High: 60ºf @3:13 PM    Low: 50ºf @10:13 AM     Approx. Precipitation / Rain Total: in.
Time (PDT)Temp. (ºf)Humidity (%)Dew Point (ºf)Barometer (inHG)Wind Speed (mph)Wind DirectionWind Gust (mph)1hr. Precip / Rain Total (in.)Snow Depth
5:13 PM596-8.15-18.25s27.81--
4:13 PM606-7.42-19.12s30.41--
3:13 PM606-7.42-21.72sse32.15--
2:13 PM606-7.42-23.46sse36.5--
1:13 PM587-5.73-24.33sse39.1--
12:13 PM568-4.46-26.07sse42.58--
11:13 AM5310-2.08-26.94sse39.1--
10:13 AM5011-2.4-29.55sse42.58--
High: 59ºf @2:13 PM    Low: 52ºf @10:13 AM     Approx. Precipitation / Rain Total: in.
Time (PDT)Temp. (ºf)Humidity (%)Dew Point (ºf)Barometer (inHG)Wind Speed (mph)Wind DirectionWind Gust (mph)1hr. Precip / Rain Total (in.)Snow Depth
2:13 PM596-8.15-25.2sse44.32--
1:13 PM578-3.71-28.68sse42.58--
12:13 PM55111.48-29.55sse39.1--
11:13 AM54134.29-26.94s39.97--
10:13 AM521911.04-25.2sse34.76--
High: 64ºf @4:13 PM    Low: 61ºf @5:13 PM     Approx. Precipitation / Rain Total: in.
Time (PDT)Temp. (ºf)Humidity (%)Dew Point (ºf)Barometer (inHG)Wind Speed (mph)Wind DirectionWind Gust (mph)1hr. Precip / Rain Total (in.)Snow Depth
5:13 PM613835.21-2.61n11.3--
4:13 PM643435.07-1.74n9.56--
3:13 PM633635.62-6.08n13.03--
2:13 PM643535.8-5.21n13.03--
1:13 PM623836.1-8.69n13.03--
12:13 PM623433.31-7.82nne12.17--
11:13 AM613331.69-9.56nne13.9--
10:13 AM623131.02-6.08nne13.9--
High: 72ºf @12:13 PM    Low: 68ºf @5:13 PM     Approx. Precipitation / Rain Total: in.
Time (PDT)Temp. (ºf)Humidity (%)Dew Point (ºf)Barometer (inHG)Wind Speed (mph)Wind DirectionWind Gust (mph)1hr. Precip / Rain Total (in.)Snow Depth
5:13 PM682833.67-5.21n10.43--
4:13 PM702734.48-3.48n11.3--
3:13 PM712129.1-2.61n11.3--
1:13 PM712027.91-3.48nne9.56--
12:13 PM721724.8-6.08nne9.56--
11:13 AM721623.36-0.87n4.34--
High: 79ºf @1:13 PM    Low: 72ºf @4:13 PM     Approx. Precipitation / Rain Total: in.
Time (PDT)Temp. (ºf)Humidity (%)Dew Point (ºf)Barometer (inHG)Wind Speed (mph)Wind DirectionWind Gust (mph)1hr. Precip / Rain Total (in.)Snow Depth
4:13 PM722433.23-4.34n9.56--
3:13 PM731928.3-4.34n8.69--
2:13 PM771322.39------
1:13 PM791730.45------
12:13 PM781221.28---13.9--
11:13 AM76913.11-11.3sse17.38--
High: 76ºf @3:13 PM    Low: 70ºf @11:13 AM     Approx. Precipitation / Rain Total: in.
Time (PDT)Temp. (ºf)Humidity (%)Dew Point (ºf)Barometer (inHG)Wind Speed (mph)Wind DirectionWind Gust (mph)1hr. Precip / Rain Total (in.)Snow Depth
5:13 PM741013.99-13.9se25.2--
4:13 PM751014.75-14.77sse25.2--
3:13 PM76913.11-15.64se28.68--
2:13 PM751014.75-18.25se30.41--
1:13 PM741013.99-19.12se30.41--
11:13 AM701113.09-22.59sse30.41--
High: 71ºf @2:13 PM    Low: 67ºf @11:13 AM     Approx. Precipitation / Rain Total: in.
Time (PDT)Temp. (ºf)Humidity (%)Dew Point (ºf)Barometer (inHG)Wind Speed (mph)Wind DirectionWind Gust (mph)1hr. Precip / Rain Total (in.)Snow Depth
5:13 PM692733.62---0.87--
4:13 PM692935.41---1.74--
3:13 PM702734.48---6.95--
2:13 PM712735.33-0.87sse0.87--
1:13 PM702734.48-0.87sse13.9--
11:13 AM672024.61-11.3sse15.64--
High: 55ºf @12:13 PM    Low: 53ºf @5:13 PM     Approx. Precipitation / Rain Total: in.
Time (PDT)Temp. (ºf)Humidity (%)Dew Point (ºf)Barometer (inHG)Wind Speed (mph)Wind DirectionWind Gust (mph)1hr. Precip / Rain Total (in.)Snow Depth
5:13 PM534934.36-0.87n10.43--
4:13 PM544432.58-5.21n12.17--
2:13 PM544332.01-9.56nne13.9--
1:13 PM544130.84-7.82nne13.03--
12:13 PM554031.13-6.08nne11.3--
11:13 AM554031.13-1.74n12.17--
High: 68ºf @11:13 AM    Low: 59ºf @5:13 PM     Approx. Precipitation / Rain Total: in.
Time (PDT)Temp. (ºf)Humidity (%)Dew Point (ºf)Barometer (inHG)Wind Speed (mph)Wind DirectionWind Gust (mph)1hr. Precip / Rain Total (in.)Snow Depth
5:13 PM593934.08-0.87n5.21--
4:13 PM613331.69-1.74n10.43--
3:13 PM623534.03---11.3--
2:13 PM614036.5-1.74n13.9--
12:13 PM662529.17-1.74nw10.43--
11:13 AM682530.86-0.87ssw10.43--
High: 64ºf @1:13 PM    Low: 60ºf @11:13 AM     Approx. Precipitation / Rain Total: in.
Time (PDT)Temp. (ºf)Humidity (%)Dew Point (ºf)Barometer (inHG)Wind Speed (mph)Wind DirectionWind Gust (mph)1hr. Precip / Rain Total (in.)Snow Depth
1:13 PM641718.32-15.64sse26.07--
12:13 PM621818.02-16.51sse28.68--
11:13 AM602018.82-16.51s22.59--
High: 50ºf @3:13 PM    Low: 47ºf @11:13 AM     Approx. Precipitation / Rain Total: in.
Time (PDT)Temp. (ºf)Humidity (%)Dew Point (ºf)Barometer (inHG)Wind Speed (mph)Wind DirectionWind Gust (mph)1hr. Precip / Rain Total (in.)Snow Depth
3:13 PM504931.6-4.34n13.03--
2:13 PM495332.62-6.95nne13.03--
1:13 PM486135.2-7.82n13.9--
12:13 PM476535.85-5.21n11.3--
11:13 AM476134.26-1.74n8.69--
High: 51ºf @3:13 PM    Low: 45ºf @11:13 AM     Approx. Precipitation / Rain Total: in.
Time (PDT)Temp. (ºf)Humidity (%)Dew Point (ºf)Barometer (inHG)Wind Speed (mph)Wind DirectionWind Gust (mph)1hr. Precip / Rain Total (in.)Snow Depth
5:13 PM485432.16-2.61n10.43--
4:13 PM505032.1-4.34n12.17--
3:13 PM515133.51-5.21n15.64--
2:13 PM505835.81-8.69n13.03--
1:13 PM486135.2-6.95n13.03--
12:13 PM476836.99-5.21n13.9--
11:13 AM457637.9-5.21n11.3--
High: 51ºf @3:13 PM    Low: 46ºf @12:13 PM     Approx. Precipitation / Rain Total: in.
Time (PDT)Temp. (ºf)Humidity (%)Dew Point (ºf)Barometer (inHG)Wind Speed (mph)Wind DirectionWind Gust (mph)1hr. Precip / Rain Total (in.)Snow Depth
4:13 PM505032.1-1.74n13.03--
3:13 PM515133.51-4.34n14.77--
2:13 PM515736.31-1.74n14.77--
1:13 PM495935.3-5.21n13.9--
12:13 PM466133.31-6.95n13.03--
11:13 AM466434.51-5.21n12.17--
High: 59ºf @2:13 PM    Low: 58ºf @12:13 PM     Approx. Precipitation / Rain Total: in.
Time (PDT)Temp. (ºf)Humidity (%)Dew Point (ºf)Barometer (inHG)Wind Speed (mph)Wind DirectionWind Gust (mph)1hr. Precip / Rain Total (in.)Snow Depth
2:13 PM598554.49-3.48n12.17--
12:13 PM587650.48-3.48wnw9.56--
Past Weather Disclaimer Note regarding "Approx. Precipitation / Rain Total"

Currently

Fair 75°F
30.34in
Barometer
14%
Humidity
Northeast 12.7mph
Wind
Fair

Past Weather Nearby

More Local Information

Bookmark and Share

Go Ad Free - Become a Member